Flag for Bosnia-Herzegovina Weather past 2 weeks in Sarajevo, Bosnia-Herzegovina

Now
39 °F

Clear.


Feels Like: 39 °F
Forecast: 20 / 45 °F
Wind: 2 mph from North

Location: Sarajevo / Butmir

Current Time: Dec 22, 2014 at 1:07:11 PM

Latest Report: Dec 22, 2014 at 12:30 PM


Visibility: 4 mi

Pressure: 30.36 "Hg

Humidity: 61%

Dew point: 27 °F

Location of SarajevoLocation

Historic Weather in Sarajevo — Graph

°F

Sarajevo temperature yesterday

Maximum temperature yesterday: 45 °F (at 12:30 PM)
Minimum temperature yesterday: 27 °F (at 11:00 PM)
Average temperature yesterday: 36 °F

Past Weeks' High & Low Weather Summary

 TemperatureHumidityPressure
High52 °F (Dec 14, 2:00 PM)100% (Dec 7, 9:00 PM)30.51 "Hg (Dec 7, 9:00 PM)
Low21 °F (Dec 22, 5:30 AM)49% (Dec 21, 1:30 PM)29.80 "Hg (Dec 17, 3:00 AM)
Average37 °F90%30.13 "Hg
* Reported Dec 7 12:00 Noon — Dec 22 12:00 Noon, Sarajevo, Weather by CustomWeather, © 2014

Note: Actual official high and low records may vary slightly from our data, if they occured in-between our weather recording intervals... More about our weather records

Advertising

Sarajevo weather history for previous 24 hours

 ConditionsComfort  
Time TempWeatherWind HumidityBarometerVisibility
12:00 PM
Dec 22
41 °FClear.1 mph61%30.36 "Hg4 mi
11:30 AM37 °FClear.1 mph75%30.39 "Hg4 mi
11:00 AM34 °FClear.1 mph81%30.39 "Hg4 mi
10:30 AM32 °FClear.No wind87%30.42 "Hg4 mi
10:00 AM28 °FClear.1 mph100%30.42 "Hg4 mi
9:30 AM28 °FClear.1 mph100%30.42 "Hg4 mi
9:00 AM27 °FClear.1 mph100%30.45 "Hg4 mi
8:30 AM25 °FClear.1 mph100%30.45 "Hg5 mi
8:00 AM23 °FClear.No wind100%30.45 "HgN/A
7:30 AM23 °FClear.No wind100%30.45 "HgN/A
7:00 AM21 °FClear.No wind100%30.42 "Hg10 mi
6:30 AM23 °FClear.1 mph100%30.42 "Hg10 mi
6:00 AM23 °FClear.1 mph100%30.42 "Hg10 mi
5:30 AM21 °FClear.1 mph100%30.42 "Hg5 mi
4:00 AM25 °FClear.No wind93%30.45 "Hg4 mi
2:00 AM25 °FClear.2 mph100%30.48 "Hg4 mi
1:00 AM25 °FClear.1 mph100%30.48 "Hg6 mi
12:00 AM25 °FClear.2 mph100%30.51 "Hg5 mi
11:00 PM
Dec 21
27 °FClear.No wind93%30.51 "Hg5 mi
10:00 PM28 °FClear.1 mph93%30.51 "Hg5 mi
9:30 PM28 °FClear.1 mph93%30.51 "Hg5 mi
9:00 PM30 °FClear.No wind93%30.51 "Hg5 mi
8:30 PM30 °FClear.2 mph86%30.48 "Hg5 mi
8:00 PM30 °FClear.1 mph86%30.48 "Hg5 mi
7:30 PM30 °FClear.1 mph86%30.48 "Hg5 mi
7:00 PM32 °FClear.1 mph87%30.48 "Hg5 mi
5:30 PM39 °FPassing clouds.2 mph65%30.45 "HgN/A
5:00 PM39 °FPassing clouds.2 mph61%30.42 "HgN/A
4:30 PM41 °FPassing clouds.2 mph57%30.42 "HgN/A
4:00 PM41 °FScattered clouds.2 mph61%30.42 "HgN/A
3:30 PM41 °FScattered clouds.2 mph61%30.42 "HgN/A
3:00 PM43 °FScattered clouds.5 mph57%30.39 "HgN/A
2:30 PM45 °FScattered clouds.3 mph53%30.39 "HgN/A
2:00 PM45 °FScattered clouds.5 mph49%30.36 "HgN/A
1:30 PM45 °FScattered clouds.3 mph49%30.39 "HgN/A
1:00 PM45 °FScattered clouds.5 mph61%30.39 "HgN/A
Weather by CustomWeather, © 2014

See weather overviewHow to use our weather pages